Home   Weather   Nãgpur   Past weeks
Flag for India

Past Weather in Nãgpur, Maharashtra, India — Yesterday and Last 2 Weeks

Now
75 °F

Haze.


Feels Like: 77 °F
Forecast: 101 / 71 °F
Wind: 2 mph from North

Location: Nagpur Sonegaon

Current Time: Mar 24, 2019 at 7:15:23 am

Latest Report: Mar 24, 2019 at 6:00 am


Visibility: 2 mi

Pressure: 29.89 "Hg

Humidity: 36%

Dew Point: 46 °F

Location of NãgpurLocation

Past Weather in Nãgpur — Graph

°F

Nãgpur Temperature Yesterday

Maximum temperature yesterday: 97 °F (at 2:30 pm)
Minimum temperature yesterday: 77 °F (at 5:30 am)
Average temperature yesterday: 87 °F

High & Low Weather Summary for the Past Weeks

 TemperatureHumidityPressure
High100 °F (Mar 11, 4:00 pm)83% (Mar 20, 11:00 pm)30.04 "Hg (Mar 20, 11:00 pm)
Low66 °F (Mar 9, 5:30 am)12% (Mar 10, 4:00 pm)29.71 "Hg (Mar 20, 4:00 pm)
Average85 °F40%29.90 "Hg
* Reported Mar 9 5:30 am — Mar 24 5:30 am, Nãgpur. Weather by CustomWeather, © 2019

Note: Actual official high and low records may vary slightly from our data, if they occured in-between our weather recording intervals... More about our weather records

Advertising

Nãgpur Weather History for the Previous 24 Hours

Scroll right to see more
 ConditionsComfort  
Time TempWeatherWind HumidityBarometerVisibility
5:30 am
Sun, Mar 24
73 °FHaze.No wind38%29.89 "Hg2 mi
5:00 am72 °FHaze.No wind41%29.89 "Hg2 mi
4:30 am72 °FHaze.2 mph41%29.89 "Hg2 mi
4:00 am79 °FHaze.3 mph30%29.89 "Hg2 mi
3:30 am79 °FHaze.3 mph28%29.86 "Hg2 mi
3:00 am81 °FHaze.5 mph28%29.86 "Hg2 mi
2:30 am81 °FHaze.5 mph28%29.86 "Hg2 mi
2:00 am81 °FHaze.5 mph28%29.89 "Hg2 mi
1:30 am81 °FHaze.5 mph28%29.89 "Hg2 mi
1:00 am82 °FHaze.6 mph26%29.89 "Hg2 mi
12:30 am82 °FHaze.6 mph28%29.92 "Hg2 mi
12:00 am84 °FHaze.6 mph27%29.92 "Hg2 mi
11:30 pm
Sat, Mar 23
84 °FHaze.5 mph29%29.92 "Hg2 mi
10:30 pm84 °FHaze.5 mph35%29.92 "Hg2 mi
10:00 pm86 °FHaze.5 mph33%29.92 "Hg2 mi
9:30 pm86 °FHaze.5 mph31%29.92 "Hg2 mi
9:00 pm86 °FHaze.5 mph31%29.89 "Hg2 mi
8:30 pm86 °FHaze.5 mph31%29.89 "Hg2 mi
8:00 pm88 °FHaze.2 mph29%29.89 "Hg2 mi
7:30 pm88 °FHaze.3 mph27%29.86 "Hg2 mi
7:00 pm90 °FHaze.2 mph27%29.86 "Hg2 mi
6:30 pm91 °FHaze.2 mph23%29.83 "Hg3 mi
6:00 pm93 °FHaze.2 mph21%29.83 "Hg3 mi
5:30 pm95 °FClear.2 mph20%29.83 "Hg4 mi
5:00 pm97 °FClear.1 mph19%29.83 "Hg4 mi
4:30 pm97 °FClear.3 mph19%29.83 "Hg4 mi
4:00 pm97 °FClear.No wind19%29.86 "Hg4 mi
3:30 pm97 °FClear.1 mph19%29.86 "Hg4 mi
3:00 pm97 °FClear.5 mph19%29.86 "Hg4 mi
2:30 pm97 °FClear.3 mph19%29.89 "Hg4 mi
2:00 pm95 °FClear.2 mph20%29.89 "Hg4 mi
1:30 pm95 °FClear.6 mph20%29.89 "Hg4 mi
1:00 pm95 °FClear.6 mph20%29.92 "Hg4 mi
12:30 pm95 °FClear.6 mph20%29.95 "Hg4 mi
12:00 pm93 °FClear.2 mph23%29.95 "Hg4 mi
11:30 am91 °FHaze.7 mph23%29.98 "Hg3 mi
11:00 am91 °FHaze.6 mph23%29.98 "Hg3 mi
10:30 am90 °FHaze.6 mph26%30.01 "Hg3 mi
10:00 am88 °FHaze.3 mph27%30.01 "Hg3 mi
9:30 am86 °FHaze.6 mph29%30.01 "Hg3 mi
9:00 am84 °FHaze.6 mph31%30.01 "Hg2 mi
8:32 am82 °FHaze.2 mph32%30.01 "Hg2 mi
8:00 am79 °FHaze.2 mph39%29.98 "Hg2 mi
7:30 am79 °FHaze.2 mph39%29.98 "Hg2 mi
7:00 am77 °FHaze.2 mph39%29.95 "Hg2 mi
Weather by CustomWeather, © 2019

See weather overview